Weather in Korzhovka-Golubovka

Russia / Bryansk Oblast     52°45′54″N   32°20′58″E
temp.,
°C
wind,
m/s
gust,
m/s
humid.,
%
clouds,
%
prec.,
mm/h
press.,
hPa
HPBL,
m
9 may, sun
sun900:00+3wnw61483100 0.0 1013580
03:00+2nw6148480 0.0 1015446
06:00+1wnw513894 0.0 1017369
09:00+6nw711675 0.0 10191036
12:00+9nw81049100 0.0 10202161
15:00+11nw794494 0.0 10212428
18:00+11nnw57545 0.0 10232111
21:00+6nw33695 0.0 102538
10 may, mon
mon1000:00+4nw22665 0.0 102619
03:00+3nnw22665 0.0 102810
06:00+3nne11674 0.0 102810
09:00+10nne11549 0.0 1029349
12:00+13nne22435 0.0 10281325
15:00+15nne23420 0.0 10281509
18:00+14nne24480 0.0 10271377
21:00+9ne33710 0.0 102832
11 may, tue
tue1100:00+7ene33690 0.0 102741
03:00+5ne34740 0.0 102755
06:00+4ne410780 0.0 1027191
09:00+11ne6106121 0.0 1026484
12:00+14ne696053 0.0 1024680
15:00+18ene69625 0.0 10231020
18:00+18ene6107144 0.0 10221150
21:00+13e41091100 0.4 1023303
12 may, wed
wed1200:00+10e49955 0.0 1023173
03:00+7ese389211 0.0 1022156
06:00+8e51190100 0.4 1022423
09:00+10ene51084100 2.5 1021622
12:00+13e6970100 0.1 10191293
15:00+14e7127398 0.7 10181741
18:00+10e71287100 2.6 1017823
21:00+9e41194100 3.1 1016524
13 may, thu
thu1300:00+9e71392100 1.0 1014578
03:00+8se712895 3.7 1014597
06:00+7se6129656 0.0 1015504
09:00+11sse610791 0.0 1015803
12:00+15sse7960100 0.0 10151636
15:00+14sse4769100 0.0 1015974
18:00+16se5977100 0.1 1013572
21:00+13ese4129088 0.4 1013273